Weather History for Tupelo, MS

Change the Weather History Date:

Friday, March 30, 2012

  Actual Average Record
Temperature  
Mean Temperature 68 °F 58 °F  
Max Temperature 73 °F 70 °F 86 °F (1963)
Min Temperature 62 °F 46 °F 25 °F (1964)
Degree Days  
Heating Degree Days 0 8  
Month to date heating degree days 110 347  
Since 1 July heating degree days 2192 2778  
Cooling Degree Days 3 1  
Month to date cooling degree days 74 8  
Year to date cooling degree days 81 10  
Growing Degree Days 17 (Base 50)    
Moisture  
Dew Point 62 °F    
Average Humidity 87    
Maximum Humidity 100    
Minimum Humidity 73    
Precipitation  
Precipitation 2.84 in 0.15 in 2.86 in (1939)
Month to date precipitation 7.71 4.67  
Year to date precipitation 17.07 14.11  
Snow  
Snow 0.00 in 0.00 in T in (1987)
Month to date snowfall 0.0 0.3  
Since 1 July snowfall T 2.1  
Snow Depth 0.00 in    
Sea Level Pressure  
Sea Level Pressure 29.91 in    
Wind  
Wind Speed 3 mph (SSE)    
Max Wind Speed 16 mph    
Max Gust Speed 20 mph    
Visibility 6 miles    
Events Fog , Rain , Thunderstorm    
T = Trace of Precipitation, MM = Missing Value Source: NWS Daily Summary

Daily Weather History Graph

Daily Weather History Graph

Search for Another Location

Airport:

Trip Planner

Search our weather history database for the weather conditions in past years. The results will help you decide how hot, cold, wet, or windy it might be!

Date:

Astronomy

Mar. 30, 2012 Rise Set
Actual Time 6:44 AM CDT 7:14 PM CDT
Civil Twilight 6:19 AM CDT 7:40 PM CDT
Nautical Twilight 5:49 AM CDT 8:09 PM CDT
Astronomical Twilight 5:19 AM CDT 8:39 PM CDT
Moon 12:01 PM CDT (3/30) 1:39 AM CDT (3/30)
Length of Visible Light 13h 20m
Length of Day
12h 30m
Waxing Crescent, 49% of the Moon is Illuminated
Mar 30
Waxing Crescent
Mar 30
First Quarter
Apr 6
Full
Apr 13
Last Quarter
Apr 21
New

Hourly Weather History & Observations

Time (CDT) Temp. Dew Point Humidity Pressure Visibility Wind Dir Wind Speed Gust Speed Precip Events Conditions
12:53 AM 63.0 °F 59.0 °F 87% 29.90 in 10.0 mi SSW 4.6 mph - N/A   Scattered Clouds
1:53 AM 64.0 °F 59.0 °F 84% 29.91 in 10.0 mi WSW 3.5 mph - N/A   Partly Cloudy
2:53 AM 64.0 °F 60.1 °F 87% 29.90 in 10.0 mi Calm Calm - 0.00 in   Overcast
3:53 AM 64.9 °F 60.1 °F 84% 29.90 in 10.0 mi Calm Calm - N/A   Overcast
4:53 AM 64.0 °F 61.0 °F 90% 29.91 in 10.0 mi Calm Calm - 0.01 in Rain Light Rain
5:53 AM 64.9 °F 62.1 °F 90% 29.91 in 8.0 mi Calm Calm - 0.00 in   Overcast
6:53 AM 64.9 °F 62.1 °F 90% 29.91 in 7.0 mi ESE 3.5 mph - N/A   Overcast
7:08 AM 64.4 °F 62.6 °F 94% 29.93 in 2.5 mi South 4.6 mph - 0.01 in Rain Heavy Rain
7:22 AM 64.4 °F 62.6 °F 94% 29.93 in 4.0 mi Calm Calm - 0.07 in Rain , Thunderstorm Light Thunderstorms and Rain
7:53 AM 64.0 °F 62.1 °F 93% 29.92 in 3.0 mi Calm Calm - 0.10 in Rain , Thunderstorm Thunderstorms and Rain
8:00 AM 64.4 °F 62.6 °F 94% 29.93 in 2.5 mi Calm Calm - 0.00 in Rain , Thunderstorm Thunderstorms and Rain
8:05 AM 64.4 °F 62.6 °F 94% 29.93 in 2.5 mi Calm Calm - 0.01 in Rain Light Rain
8:14 AM 64.4 °F 62.6 °F 94% 29.92 in 4.0 mi NE 8.1 mph - 0.01 in   Overcast
8:30 AM 64.4 °F 62.6 °F 94% 29.92 in 2.5 mi North 5.8 mph - 0.03 in Rain , Thunderstorm Heavy Thunderstorms and Rain
8:33 AM 64.4 °F 62.6 °F 94% 29.92 in 1.8 mi NNE 6.9 mph - 0.07 in Rain , Thunderstorm Heavy Thunderstorms and Rain
8:42 AM 64.4 °F 62.6 °F 94% 29.93 in 3.0 mi NNW 8.1 mph - 0.10 in Rain , Thunderstorm Light Thunderstorms and Rain
8:51 AM 64.4 °F 62.6 °F 94% 29.98 in 0.5 mi WNW 6.9 mph 19.6 mph 0.22 in Fog , Rain , Thunderstorm Heavy Thunderstorms and Rain
8:53 AM 63.0 °F 62.1 °F 97% 29.97 in 0.2 mi Calm Calm - 0.39 in Fog , Rain , Thunderstorm Heavy Thunderstorms and Rain
9:09 AM 62.6 °F 60.8 °F 94% 29.97 in 0.5 mi North 10.4 mph - 1.25 in Fog , Rain , Thunderstorm Heavy Thunderstorms and Rain
9:19 AM 62.6 °F 60.8 °F 94% 29.95 in 1.5 mi NE 12.7 mph - 1.38 in Rain , Thunderstorm Heavy Thunderstorms and Rain
9:30 AM 64.4 °F 60.8 °F 88% 29.95 in 2.0 mi North 10.4 mph - 1.52 in Rain , Thunderstorm Heavy Thunderstorms and Rain
9:53 AM 63.0 °F 61.0 °F 93% 29.95 in 2.0 mi NE 6.9 mph - 1.58 in Rain , Thunderstorm Heavy Thunderstorms and Rain
10:00 AM 62.6 °F 60.8 °F 94% 29.95 in 4.0 mi ENE 5.8 mph - 0.02 in Rain , Thunderstorm Heavy Thunderstorms and Rain
10:14 AM 62.6 °F 60.8 °F 94% 29.96 in 1.8 mi Calm Calm - 0.11 in Rain , Thunderstorm Heavy Thunderstorms and Rain
10:42 AM 62.6 °F 60.8 °F 94% 29.96 in 2.5 mi SE 4.6 mph - 0.32 in Rain Heavy Rain
10:53 AM 63.0 °F 61.0 °F 93% 29.96 in 1.5 mi Calm Calm - 0.40 in Rain Heavy Rain
11:07 AM 62.6 °F 60.8 °F 94% 29.95 in 2.5 mi East 3.5 mph - 0.08 in Rain Heavy Rain
11:53 AM 63.0 °F 61.0 °F 93% 29.94 in 2.5 mi SE 6.9 mph - 0.33 in Rain Heavy Rain
12:53 PM 68.0 °F 63.0 °F 84% 29.90 in - Calm Calm - 0.03 in   Scattered Clouds
1:01 PM 68.0 °F 62.6 °F 83% 29.91 in 10.0 mi Calm Calm - N/A   Scattered Clouds
1:53 PM 70.0 °F 64.0 °F 81% 29.88 in 10.0 mi Calm Calm - N/A   Mostly Cloudy
2:53 PM 71.1 °F 63.0 °F 75% 29.86 in 10.0 mi NE 5.8 mph - N/A   Overcast
3:53 PM 71.1 °F 63.0 °F 75% 29.84 in 10.0 mi Calm Calm - N/A   Overcast
4:53 PM 72.0 °F 63.0 °F 73% 29.83 in 10.0 mi SSW 8.1 mph - N/A   Mostly Cloudy
5:53 PM 71.1 °F 64.0 °F 78% 29.83 in 10.0 mi SW 6.9 mph - N/A   Mostly Cloudy
6:53 PM 68.0 °F 64.0 °F 87% 29.82 in 10.0 mi SSW 8.1 mph - N/A   Clear
7:53 PM 66.0 °F 63.0 °F 90% 29.83 in 10.0 mi SW 5.8 mph - N/A   Clear
8:53 PM 64.0 °F 62.1 °F 93% 29.86 in 10.0 mi SSW 4.6 mph - N/A   Partly Cloudy
9:53 PM 64.0 °F 62.1 °F 93% 29.86 in 10.0 mi Calm Calm - N/A   Clear
10:53 PM 64.0 °F 62.1 °F 93% 29.86 in 8.0 mi Calm Calm - N/A   Mostly Cloudy
11:31 PM 62.6 °F 60.8 °F 94% 29.87 in 6.0 mi SW 3.5 mph - N/A   Scattered Clouds
11:42 PM 62.6 °F 60.8 °F 94% 29.87 in 4.0 mi SSW 6.9 mph - N/A   Mostly Cloudy
11:53 PM 63.0 °F 62.1 °F 97% 29.86 in 3.0 mi SSW 5.8 mph - N/A   Overcast